Location: Unspecified
(0.0000°N, 0.0000°E)
Time: 07:09:55
(UTC+00:00)

Vanguard 2 - Pass Details

Date: 16 September 2019
Orbit: 554 x 2937 km, 32.9° (Epoch: 14 October)

Event Time Altitude Azimuth Distance (km) Brightness Sun altitude
Rises 14:44:46 0° 267° (W) 3,278 11.5 47.5°
Reaches altitude 10° 14:47:27 10° 251° (WSW) 2,599 11.1 46.8°
Maximum altitude 14:52:14 22° 201° (SSW) 2,311 10.4 45.6°
Drops below altitude 10° 14:58:57 10° 154° (SSE) 3,788 10.9 43.9°
Sets 15:03:59 0° 141° (SE) 5,275 11.5 42.7°
